FENGYUN 1C DEB, 29802

Orbit data source: Space-Track

FENGYUN 1C DEB, 29802 is space debris in SSO originally from a launch on Mon, 10 May 1999 UTC launched from the Taiyaun Space Center, China (TSC). Fengyun 1C debris stems from the Chinese weather satellite Fengyun-1C, which was intentionally destroyed by a Chinese anti-satellite missile in 2007. This event dramatically increased the amount of space debris, with thousands of trackable fragments posing hazards to satellites and human spaceflight. The Fengyun 1C debris cloud has become a focal point in discussions about space sustainability and the need for international regulations to prevent the creation of new debris.

Loading next visibility...
Identifier
29802, 1999-025CU
Orbit
SSO
Country
Flag of CNCN / PRC
Related business
Manufacturer
Unknown
Mission
Spacecraft
Bus & Motor
Unknown
Mass
Unknown
Launch date (UTC)
1999-05-10 (27 years ago)
Launch vehicle
Unknown
Launch site
Taiyaun Space Center, China (TSC)
Object type
Payload
Rocket body
Debris
Shape & HBR
Unknown shape, 0.1 m
Radar Cross Section
Small (<0.1 m²)

Expand to show TLE details & history
Last TLE update: 1 day ago

TLE from 1 day ago
0 FENGYUN 1C DEB
1 29802U 99025CU  26072.29256491  .00013655  00000-0  24917-2 0  9996
2 29802  98.6174 190.5629 0034340  61.5824 352.4049 14.65715358997984
Epoch: 2026-03-13T07:01Z
TLE epoch observation values (Epoch: 2026-03-13T07:01:17.608Z)
Latitude
53.15948°
Longitude
-97.29686°
Altitude
659.445 km
Speed
7.546 km/s
True Right ascension
11h 55m 49s
True Declination
52° 59' 31"
Sunlit
Object was in full shadow at epoch
Visualization orbit readout
Latitude
Unknown
Longitude
Unknown
Altitude
Unknown
Speed
Unknown
Apparent Right ascension
Unknown
Apparent Declination
Unknown
Sunlit
N/A
Visualization observer readout
Local Sidereal Time
13:04:05
Azimuth
Unknown
Elevation
Unknown
Doppler factor
Unknown
Orbital elements
Apogee altitude
696.083 km
Perigee altitude
647.663 km
Semi-major axis
7,050.01 km
Eccentricity
0.00343
Inclination
98.6174°
RAAN
190.5629°
Arg. of periapsis
61.5824°
True anomaly
352.35267°
Mean anomaly
352.4049°
Eccentric anomaly
352.37881°
Mean motion
3.66656 °/min
Orbital period
98.18 mins
BSTAR
0.0024917
Loading maneuver chart data...
Computing Atmospheric mass density...
Loading historical data...
Loading historical data...
Loading historical data...
Loading historical data...
Loading historical data...
Loading historical data...
Loading historical data...

Documentation

Showing up to 5 results
|